Regional Weather Roundup
Issued by NWS Sioux Falls, SD

Home | Current Version | Previous Version | Text Only | Print | Product List | Glossary Off
Versions: 1 2 3 4 5 6 7 8 9 10 11 12 13 14 15 16 17 18 19 20 21 22 23 24 25 26 27 28 29 30 31 32 33 34 35 36 37 38 39 40 41 42 43 44 45 46 47 48 49 50

000
ASUS43 KFSD 250210
RWRFSD

WEATHER ROUNDUP FOR SE SOUTH DAKOTA/SW MINNESOTA/NW IOWA
NATIONAL WEATHER SERVICE SIOUX FALLS SD
900 PM CDT FRI OCT 24 2014

NOTE: "FAIR" INDICATES FEW OR NO CLOUDS BELOW 12,000 FEET WITH NO
SIGNIFICANT WEATHER AND OR OBSTRUCTIONS TO VISIBILITY.


SDZ038>040-050-052>070-250300-
SOUTHEAST SOUTH DAKOTA

CITY           SKY/WX    TMP DP  RH WIND       PRES   REMARKS
CHAMBERLAIN    CLEAR     51  35  56 CALM      29.98S
HURON          PTCLDY    51  37  58 NW8       29.95S
MADISON        FAIR      54  39  58 NW6       29.97R
MITCHELL       CLEAR     60  40  47 W7        29.97R
SIOUX FALLS    PTCLDY    58  43  57 SW6       29.96R
WINNER         FAIR      57  33  40 SW3       30.01R
YANKTON        CLEAR     61  45  55 SW8       29.98R
$$

MNZ071-072-080-081-089-090-097-098-250300-
SOUTHWEST MINNESOTA

CITY           SKY/WX    TMP DP  RH WIND       PRES   REMARKS
FAIRMONT       MOCLDY    54   7  15 SW3       29.91S
JACKSON        CLEAR     54  37  54 W6        29.94S
LUVERNE        CLEAR     54  41  62 CALM      29.96R
MARSHALL       PTCLDY    55  39  54 W7        29.90S
MONTEVIDEO     PTCLDY    63  41  45 W3        29.89S
PIPESTONE      CLEAR     57  39  51 CALM      29.95S
REDWOOD FALLS  MOCLDY    64  41  42 W10       29.89S
TRACY          CLEAR     58  42  55 SW9       29.92S
WINDOM         PTCLDY    54  39  58 W7        29.93R
WORTHINGTON    CLEAR     54  39  58 W6        29.96R
$$

IAZ001>003-012>014-020>022-031-032-NEZ013-014-SDZ071-250300-
NORTHWEST IOWA

CITY           SKY/WX    TMP DP  RH WIND       PRES   REMARKS
CHEROKEE       PTCLDY    53  49  86 CALM      29.96R
DENISON        PTCLDY    55  52  88 CALM      29.95R
ESTHERVILLE    PTCLDY    51  38  60 W6        29.92S
LE MARS        PTCLDY    52  45  76 CALM      29.97R
ORANGE CITY    PTCLDY    63  43  48 NW3       29.97R
SHELDON        CLEAR     50  45  81 CALM      29.95R
SIOUX CITY     CLEAR     52  46  80 CALM      29.97R
SPENCER        CLEAR     51  44  77 SW5       29.94S
STORM LAKE     MOCLDY    61  48  63 W9        29.97R
$$

ABBREVIATIONS USED IN REMARKS
   TC - TEMPERATURE IN CELSIUS
  WCI - WIND CHILL INDEX
   HX - HEAT INDEX
  VSB - VISIBILITY




USA.gov is the U.S. government's official web portal to all federal, state and local government web resources and services.